Theta_e
293 293 292 292 292 292 291 291 290 290 290 289 289 289 289 288 287 287 287 287 286 286 286 286 286 286 286 286 285 284 283 283 283 283 282 282 282 282 282 282 282 282
293 293 292 292 292 292 291 291 291 290 290 290 290 289 289 288 287 287 287 286 286 286 286 286 285 285 285 285 285 284 283 283 283 282 282 282 282 281 281 281 281 281
293 292 292 292 292 291 291 291 291 291 290 290 290 289 288 288 287 287 286 286 286 286 286 285 284 284 285 285 284 284 283 283 282 282 281 281 281 281 281 281 281 280
292 292 292 292 291 291 291 290 290 290 290 290 289 288 288 288 287 286 286 286 286 286 285 284 284 284 284 284 283 283 282 282 281 281 281 281 280 280 280 280 280 280
292 292 292 291 291 291 290 290 290 290 289 289 289 288 288 287 287 286 286 286 285 285 285 284 284 284 284 283 283 282 282 281 281 280 280 280 280 279 279 279 279 279
291 291 291 291 291 290 290 290 290 290 289 289 288 288 287 287 286 286 286 285 285 285 284 284 284 283 283 283 282 282 281 281 280 280 280 280 279 279 278 278 278 278
291 291 290 290 290 290 290 289 289 289 289 288 288 287 287 286 286 286 285 286 285 285 284 284 284 283 283 283 282 281 281 280 280 279 279 279 278 278 278 278 277 277
291 290 290 290 290 289 289 289 289 288 288 288 287 287 286 286 286 285 285 286 285 285 284 284 283 283 283 282 281 281 280 280 279 279 278 278 278 277 277 277 276 276
290 290 289 289 289 289 289 288 288 288 287 287 287 286 286 285 285 285 285 285 285 285 284 283 283 283 282 281 281 280 280 279 279 278 278 277 277 276 276 275 275 275
290 289 289 288 289 288 288 287 287 287 287 286 286 286 285 285 285 285 285 285 285 284 284 283 283 282 281 281 280 280 280 279 278 278 277 276 276 275 275 274 274 274
289 289 288 288 288 287 287 287 286 286 286 285 285 285 285 284 284 284 285 285 285 284 283 283 283 282 281 280 280 280 279 279 278 277 276 276 275 275 274 274 273 273
289 288 288 287 287 286 286 286 285 285 285 284 284 284 284 284 284 284 284 285 284 283 283 283 282 281 280 280 279 279 279 278 277 277 276 275 274 274 273 273 273 273
289 288 287 287 286 286 285 285 284 284 284 284 284 284 284 284 284 284 284 284 283 283 282 282 281 280 279 279 279 279 278 277 277 276 275 274 273 273 273 273 273 272
288 288 287 286 286 285 284 284 284 283 283 283 283 283 283 284 284 283 283 282 282 282 281 281 280 279 279 279 279 278 278 277 277 276 274 273 273 273 273 273 273 273
288 287 286 285 285 284 283 283 283 283 283 283 283 283 283 283 283 283 282 281 280 280 280 279 279 279 279 279 279 278 278 277 276 275 274 273 273 273 273 273 273 273
287 286 285 285 284 283 283 282 282 282 282 282 282 282 282 282 281 281 281 280 280 279 279 279 279 279 279 279 279 278 277 276 275 274 273 273 273 273 273 273 273 274
287 286 284 284 283 283 282 281 281 281 281 281 281 281 281 281 280 280 279 280 280 279 279 278 278 279 279 279 278 277 277 276 275 274 274 273 274 274 274 274 274 274
286 285 284 283 283 282 281 281 281 281 280 280 280 280 280 279 279 279 279 279 278 278 278 278 278 279 279 278 277 277 276 276 275 274 274 274 274 274 274 274 274 274
285 284 283 282 282 281 281 280 280 280 280 280 279 279 279 279 278 278 278 278 278 278 278 278 278 279 278 277 276 276 276 277 276 275 275 275 275 275 275 275 274 274
284 284 283 282 281 281 280 280 280 280 279 279 279 279 278 278 277 277 277 277 278 278 278 278 278 278 277 276 276 276 277 277 276 276 275 275 275 275 275 274 273 273
284 283 282 281 281 280 280 279 279 279 278 278 278 278 278 278 277 277 277 278 278 278 278 278 278 277 276 276 275 276 276 277 276 276 275 275 275 274 274 273 273 273
283 283 282 281 280 280 279 279 278 278 278 277 277 277 276 276 276 277 277 277 277 278 278 278 278 276 276 275 275 275 276 276 276 275 275 275 274 273 273 273 273 273
283 282 281 281 280 279 278 278 278 277 277 277 276 275 275 274 275 276 277 278 278 278 278 278 277 276 275 275 274 275 276 276 275 275 274 274 273 273 273 273 273 274
283 282 281 280 279 278 278 277 277 276 276 276 276 275 274 274 275 276 277 277 278 278 278 277 277 275 275 274 274 274 275 275 274 274 274 274 274 273 273 274 274 274
283 282 281 280 279 278 278 277 276 276 275 275 275 274 274 274 275 275 275 276 277 277 277 276 276 275 274 274 273 274 275 274 274 274 274 273 274 274 274 274 275 275
282 281 281 280 279 278 277 277 276 275 274 274 274 274 274 274 274 274 275 275 275 276 275 275 275 274 273 273 273 274 275 275 274 274 274 274 274 274 274 275 275 275
Wind_Speed
45 45 44 43 43 43 43 43 43 43 43 43 42 41 39 36 33 30 28 25 22 20 18 16 15 13 11 9 9 9 10 11 11 11 11 12 13 14 16 17 18 19
46 45 44 43 43 43 44 45 45 44 44 43 42 40 38 36 32 30 28 25 23 21 19 17 15 13 11 10 10 10 11 11 11 10 11 12 13 15 17 17 18 18
47 46 46 46 46 45 45 45 45 45 44 43 41 40 37 35 32 29 27 25 23 21 19 17 15 13 12 11 11 10 10 11 11 11 12 14 14 16 17 17 18 18
47 48 48 47 46 44 44 44 44 44 43 42 41 39 37 35 32 30 28 25 23 21 20 18 16 14 12 11 10 10 10 11 11 12 13 14 15 16 16 16 17 17
47 47 46 45 43 42 42 43 44 44 43 41 40 38 37 35 34 32 29 27 25 23 21 18 16 14 12 11 10 10 11 11 12 12 14 14 14 15 16 16 15 15
44 44 44 43 42 42 42 43 43 43 42 41 40 38 37 36 35 33 31 29 26 24 21 19 16 14 12 11 11 11 11 12 12 12 13 15 15 15 16 16 16 16
43 43 42 42 42 42 42 42 42 43 42 41 40 40 39 37 36 34 32 29 27 24 21 19 17 15 13 12 12 12 12 12 12 12 14 15 16 17 17 16 16 16
41 40 40 40 41 42 42 43 43 43 43 42 41 41 40 38 37 34 32 29 26 24 22 20 17 15 14 13 13 13 13 13 13 14 15 16 16 17 17 15 15 16
37 37 39 39 40 41 41 41 41 42 42 42 42 41 39 38 36 34 32 29 27 24 23 21 19 17 16 15 15 14 14 14 14 15 15 16 16 16 16 16 15 16
37 38 38 39 40 40 40 39 39 39 41 41 42 41 40 38 36 34 32 30 28 26 25 22 20 18 17 16 15 15 14 14 14 14 15 15 16 17 16 16 15 16
38 38 39 40 40 39 38 38 38 38 39 40 40 40 40 38 36 34 32 31 29 28 25 23 20 18 17 16 15 14 14 14 13 14 15 15 16 16 15 15 15 15
38 39 40 40 40 38 37 37 37 38 39 39 40 40 39 38 37 35 34 32 30 27 24 22 20 18 17 16 15 14 14 13 13 14 15 15 15 15 14 14 14 15
39 40 40 39 39 37 36 37 37 38 39 39 39 40 39 39 37 36 34 32 29 26 23 21 20 18 17 15 15 14 14 13 14 14 15 15 14 14 13 13 14 14
40 40 39 39 38 36 36 37 38 39 40 40 40 40 40 39 38 36 33 30 27 25 23 21 20 18 17 16 15 14 14 14 14 14 14 14 13 13 13 13 14 14
38 37 37 37 37 37 38 38 39 40 40 40 40 40 39 38 37 35 32 30 26 24 22 21 20 19 16 16 15 15 14 14 14 13 12 12 12 12 13 13 13 15
36 37 37 38 38 38 39 39 39 39 40 40 40 39 38 37 35 33 31 29 27 24 23 22 20 18 16 16 15 14 14 14 13 12 10 11 11 11 12 13 13 14
36 37 37 38 39 39 38 39 39 40 40 39 39 37 36 35 33 32 29 28 27 25 24 22 20 17 16 16 15 14 14 13 11 11 10 10 11 11 11 12 12 12
37 37 37 38 38 38 39 39 39 39 39 39 38 37 36 34 33 32 29 28 26 24 23 21 19 17 17 16 15 14 14 12 11 11 12 12 11 11 12 12 12 12
37 38 38 38 39 39 40 40 40 40 40 40 39 38 37 35 33 32 30 28 26 24 22 20 19 18 17 16 15 14 14 13 13 13 13 13 12 12 13 12 11 12
38 39 38 38 39 40 41 41 42 42 41 41 40 39 38 37 35 33 31 29 27 25 23 21 20 20 18 17 16 14 13 14 15 15 15 14 12 12 12 12 12 14
38 39 38 38 39 40 41 42 42 42 41 41 41 41 41 39 37 35 33 30 28 26 24 23 22 21 19 18 18 15 13 14 15 15 14 14 13 13 13 13 14 16
39 39 38 39 40 41 41 42 42 42 42 42 41 40 39 38 37 36 34 32 29 27 26 25 23 21 19 18 18 16 14 14 15 15 14 14 13 13 13 14 16 18
40 40 39 39 40 41 41 41 42 42 42 42 42 40 38 37 37 36 34 33 31 29 27 25 23 21 19 18 17 15 13 14 15 14 14 13 12 12 12 14 16 18
41 41 40 40 41 41 41 41 41 42 42 43 43 41 39 38 37 36 34 33 31 29 27 25 23 21 19 18 17 15 13 14 14 13 12 12 11 12 13 15 17 17
39 40 41 41 42 42 41 41 42 42 42 41 41 40 39 38 37 36 35 33 30 28 27 24 22 21 20 19 17 14 13 13 13 12 12 12 11 12 14 16 16 15
38 40 41 42 42 41 40 41 41 40 40 40 38 37 37 37 36 36 35 33 31 29 27 25 23 21 20 19 17 14 13 13 13 13 12 11 12 14 15 14 12 12
Wind_Direction
207 207 208 207 206 205 204 202 201 201 201 202 203 205 207 208 207 206 206 206 206 207 206 207 209 212 219 231 241 246 248 251 253 252 250 249 251 254 257 259 261 263
208 208 209 209 208 207 206 205 203 203 204 205 206 207 208 209 207 206 206 204 204 204 205 205 207 213 221 230 238 242 245 248 249 247 248 250 253 255 258 262 264 266
209 208 209 210 210 208 206 205 205 205 206 206 207 207 207 207 205 204 205 205 204 203 203 206 209 215 224 230 236 241 244 247 246 245 248 252 254 256 258 262 265 268
211 210 210 211 212 210 207 204 204 205 205 206 206 206 205 204 202 202 203 204 204 203 204 208 212 218 224 229 234 239 242 244 245 246 249 253 254 256 260 264 266 269
214 212 211 211 211 210 208 205 204 204 203 205 204 203 202 200 199 199 199 201 203 205 207 209 212 216 222 227 232 236 238 241 245 247 249 254 256 258 261 263 264 268
215 214 212 211 210 210 208 207 206 204 203 203 201 200 200 198 198 198 198 200 203 205 207 208 211 215 220 226 229 233 237 240 243 244 249 254 258 260 260 261 266 270
216 214 212 211 210 210 209 208 207 205 203 201 199 198 198 197 197 198 200 201 203 205 207 209 211 214 218 223 227 230 234 239 240 243 250 255 259 261 263 267 272 276
215 213 211 210 209 209 209 208 206 205 202 199 197 197 197 197 198 199 200 202 203 205 207 209 211 213 216 219 222 226 230 234 238 243 250 255 259 264 269 273 277 281
214 212 211 209 209 209 208 207 205 203 200 198 196 195 196 198 199 199 199 200 203 205 206 208 209 211 214 217 220 223 227 230 236 243 249 255 260 264 270 274 279 284
213 212 210 208 209 209 208 206 204 201 199 197 196 195 195 197 198 199 199 200 202 204 205 206 208 211 212 215 218 221 225 229 235 243 248 255 260 265 271 275 280 287
211 210 208 208 208 208 207 205 203 201 199 197 196 195 194 195 196 198 199 201 202 203 205 206 208 211 211 213 217 219 223 229 235 244 251 255 260 265 270 275 281 286
209 208 208 207 207 206 205 204 202 200 199 197 197 195 194 194 196 197 199 201 202 203 204 206 208 210 212 213 216 219 223 230 237 244 250 255 260 266 271 276 281 284
206 207 207 206 205 204 202 201 200 200 199 198 197 196 195 195 196 197 199 201 202 202 203 206 207 208 211 212 214 219 224 230 237 243 249 254 260 265 271 278 283 283
206 205 205 204 202 200 199 199 199 199 198 197 197 197 197 197 197 197 198 199 200 201 202 203 205 206 209 210 212 219 223 228 234 239 245 252 258 268 275 282 284 283
204 202 201 200 198 197 197 197 196 196 196 196 196 197 197 197 197 197 196 196 196 198 199 201 204 206 206 208 211 215 219 225 232 235 242 252 261 271 279 283 284 286
200 198 197 195 195 195 194 193 193 193 193 194 194 195 196 196 196 195 195 194 193 195 198 201 205 204 202 207 210 212 217 221 227 234 240 253 264 271 276 280 283 285
195 194 193 193 193 193 192 190 191 191 191 192 192 193 194 193 193 192 192 193 194 195 199 201 203 200 199 205 208 210 218 222 225 234 244 252 259 264 267 273 279 280
193 191 190 191 191 190 189 189 189 188 188 189 189 190 191 190 191 191 190 192 194 195 199 201 200 197 197 202 203 203 212 226 233 237 244 249 252 257 263 270 276 277
191 189 189 189 189 189 188 187 186 186 187 188 188 189 189 189 189 190 189 190 193 194 198 200 197 195 197 198 198 197 202 218 232 234 239 249 252 256 263 268 275 280
190 189 188 188 188 187 186 185 186 186 186 187 187 187 187 187 187 188 188 190 193 195 197 199 195 194 196 195 195 198 200 209 224 233 240 247 248 250 260 268 274 280
189 189 187 187 186 185 185 185 185 186 185 186 187 187 188 188 187 188 188 189 192 194 195 197 195 192 194 197 197 197 199 206 219 230 234 238 243 249 262 272 277 281
189 188 186 186 185 184 184 185 185 185 185 185 185 186 186 187 187 187 187 187 189 192 194 195 193 191 195 199 199 196 198 207 216 224 230 238 247 256 264 272 279 285
190 187 186 185 184 184 185 185 185 185 185 184 183 183 183 184 185 186 187 188 188 189 193 193 190 192 197 200 199 196 198 208 216 223 232 241 252 260 267 275 284 287
190 188 186 185 185 186 186 185 185 184 185 185 184 183 183 184 184 184 185 188 188 187 190 191 189 192 198 201 197 193 198 209 216 222 230 243 255 264 272 281 287 287
190 189 188 187 187 188 187 185 185 184 185 185 185 184 183 183 182 181 181 185 187 186 187 189 190 191 196 197 192 190 200 209 214 223 231 242 257 267 274 281 285 285
191 190 191 190 189 188 187 186 185 184 183 183 184 183 182 180 179 178 179 181 183 184 185 188 190 191 191 190 185 187 199 207 215 225 232 244 261 269 272 277 283 286